GW3801 Weather Reports


Display with metric or nautical units.
time (UTC)temp
F
wind
direction
speed
MPH
gust
MPH
rain 1hr
in
rain 24hr
in
rain mn
in
humidity
%
barometer
mb
20260506044913 62 234 0.0 1.0 0.00 0.00 0.00 84 1018.5
20260506044411 62 173 1.0 2.0 0.00 0.00 0.00 84 1018.5
20260506043908 62 162 1.0 1.0 0.00 0.00 0.00 84 1018.8
20260506043405 62 216 0.0 0.0 0.00 0.00 0.00 84 1018.5
20260506042903 62 186 1.0 2.0 0.00 0.00 0.00 84 1018.5
20260506042402 62 252 1.0 1.0 0.00 0.00 0.00 84 1018.5
20260506041900 62 157 1.0 2.0 0.00 0.00 0.00 83 1018.6
20260506041357 62 214 1.0 2.0 0.00 0.00 0.00 83 1018.5
20260506040854 62 164 1.0 1.0 0.00 0.00 0.00 83 1018.6
20260506040352 62 164 1.0 1.0 0.00 0.00 0.00 83 1019.0
20260506035848 62 166 0.0 0.0 0.00 0.00 0.00 82 1018.9
20260506035346 62 190 1.0 1.0 0.00 0.00 0.00 82 1018.9
20260506034842 62 122 0.0 0.0 0.00 0.00 0.00 82 1018.6
20260506034340 63 170 0.0 1.0 0.00 0.00 0.00 81 1018.8
20260506033836 63 161 1.0 1.0 0.00 0.00 0.00 81 1018.8
20260506033333 63 164 0.0 1.0 0.00 0.00 0.00 80 1018.6
20260506032830 63 172 2.0 3.0 0.00 0.00 0.00 80 1018.8
20260506032327 64 249 0.0 1.0 0.00 0.00 0.00 79 1018.7
20260506031824 64 224 2.0 2.0 0.00 0.00 0.00 79 1018.8
20260506031321 64 251 2.0 3.0 0.00 0.00 0.00 78 1019.0
20260506030819 64 189 1.0 1.0 0.00 0.00 0.00 78 1018.7
20260506030317 64 162 1.0 1.0 0.00 0.00 0.00 77 1018.7
20260506025813 64 155 1.0 2.0 0.00 0.00 0.00 77 1018.7
20260506025310 65 196 1.0 1.0 0.00 0.00 0.00 77 1018.8
20260506024807 65 173 1.0 1.0 0.00 0.00 0.00 76 1018.7
20260506024303 65 165 1.0 1.0 0.00 0.00 0.00 76 1018.8
20260506023759 65 186 3.0 4.0 0.00 0.00 0.00 75 1018.8
20260506023257 65 182 2.0 2.0 0.00 0.00 0.00 75 1018.7
20260506022753 65 166 1.0 1.0 0.00 0.00 0.00 75 1018.7
20260506022251 66 251 1.0 1.0 0.00 0.00 0.00 74 1018.6
20260506021749 66 175 0.0 1.0 0.00 0.00 0.00 74 1018.5
20260506021246 66 254 2.0 2.0 0.00 0.00 0.00 74 1018.5
20260506020742 66 187 1.0 1.0 0.00 0.00 0.00 73 1018.5
20260506020240 66 211 2.0 2.0 0.00 0.00 0.00 74 1018.4
20260506015738 66 161 1.0 2.0 0.00 0.00 0.00 74 1018.5
20260506015235 66 164 1.0 2.0 0.00 0.00 0.00 74 1018.5
20260506014732 66 255 2.0 3.0 0.00 0.00 0.00 74 1018.3
20260506014228 67 21 2.0 3.0 0.00 0.00 0.00 74 1018.3
20260506013726 67 165 0.0 1.0 0.00 0.00 0.00 74 1018.5
20260506013223 67 222 1.0 1.0 0.00 0.00 0.00 74 1018.3
20260506012719 67 176 1.0 2.0 0.00 0.00 0.00 74 1018.3
20260506012216 67 127 3.0 4.0 0.00 0.00 0.00 74 1018.4
20260506011713 67 187 2.0 3.0 0.00 0.00 0.00 74 1018.3
20260506011209 68 215 2.0 2.0 0.00 0.00 0.00 73 1018.3
20260506010708 68 110 2.0 2.0 0.00 0.00 0.00 73 1018.0
20260506010205 68 190 2.0 2.0 0.00 0.00 0.00 72 1018.2
20260506005702 68 162 2.0 2.0 0.00 0.00 0.00 72 1018.1
20260506005159 68 134 3.0 6.0 0.00 0.00 0.00 72 1017.9
20260506004655 69 156 2.0 2.0 0.00 0.00 0.00 72 1018.0
20260506004152 69 170 2.0 2.0 0.00 0.00 0.00 71 1017.8
20260506003648 69 167 2.0 2.0 0.00 0.00 0.00 70 1017.8
20260506003145 69 150 3.0 4.0 0.00 0.00 0.00 70 1017.7
20260506002641 69 158 2.0 3.0 0.00 0.00 0.00 70 1017.6
20260506002137 69 215 2.0 2.0 0.00 0.00 0.00 69 1017.7
20260506001633 70 58 2.0 3.0 0.00 0.00 0.00 69 1017.6
20260506001131 70 141 3.0 3.0 0.00 0.00 0.00 68 1017.4
20260506000628 70 245 2.0 3.0 0.00 0.00 0.00 68 1017.5
20260506000125 70 149 2.0 3.0 0.00 0.00 0.00 67 1017.4
20260505235623 71 214 2.0 3.0 0.00 0.00 0.00 67 1017.5
20260505235120 71 193 2.0 2.0 0.00 0.00 0.00 66 1017.5
20260505234617 71 249 3.0 4.0 0.00 0.00 0.00 66 1017.6
20260505234113 71 187 2.0 2.0 0.00 0.00 0.00 66 1017.6
20260505233611 71 137 2.0 3.0 0.00 0.00 0.00 65 1017.7
20260505233108 72 254 2.0 3.0 0.00 0.00 0.00 65 1017.5
20260505232606 72 147 3.0 4.0 0.00 0.00 0.00 64 1017.5
20260505232103 73 199 2.0 3.0 0.00 0.00 0.00 63 1017.4
20260505231600 73 184 2.0 3.0 0.00 0.00 0.00 63 1017.3
20260505231059 74 341 2.0 2.0 0.00 0.00 0.00 62 1017.4
20260505230556 74 190 2.0 3.0 0.00 0.00 0.00 62 1017.2
20260505230052 74 273 1.0 2.0 0.00 0.00 0.00 62 1017.2
20260505225549 74 151 3.0 3.0 0.00 0.00 0.00 61 1017.0
20260505225045 74 289 3.0 3.0 0.00 0.00 0.00 61 1017.1
20260505224542 75 307 1.0 2.0 0.00 0.00 0.00 61 1017.3
20260505224039 75 158 3.0 4.0 0.00 0.00 0.00 61 1017.4
20260505223536 75 239 2.0 3.0 0.00 0.00 0.00 60 1017.2
20260505223032 75 142 2.0 3.0 0.00 0.00 0.00 59 1017.1
20260505222529 76 99 2.0 3.0 0.00 0.00 0.00 58 1017.2
20260505222025 76 131 1.0 1.0 0.00 0.00 0.00 59 1016.9
20260505221522 76 152 1.0 1.0 0.00 0.00 0.00 57 1017.0
20260505221019 77 161 3.0 3.0 0.00 0.00 0.00 56 1017.1
20260505220516 77 10 2.0 3.0 0.00 0.00 0.00 55 1017.3
20260505220014 77 131 2.0 3.0 0.00 0.00 0.00 55 1017.1
20260505215512 77 194 2.0 3.0 0.00 0.00 0.00 55 1017.1
20260505215009 77 193 3.0 6.0 0.00 0.00 0.00 55 1017.1
20260505214508 77 141 2.0 2.0 0.00 0.00 0.00 54 1017.0
20260505214004 77 147 4.0 6.0 0.00 0.00 0.00 54 1017.2
20260505213502 78 180 3.0 4.0 0.00 0.00 0.00 53 1017.1
20260505212958 78 217 1.0 2.0 0.00 0.00 0.00 54 1016.9
20260505212454 78 131 4.0 6.0 0.00 0.00 0.00 53 1017.3
20260505211951 78 175 4.0 4.0 0.00 0.00 0.00 53 1017.1
20260505211449 78 238 3.0 4.0 0.00 0.00 0.00 53 1017.1
20260505210945 78 165 0.0 1.0 0.00 0.00 0.00 54 1017.0
20260505210442 78 166 2.0 3.0 0.00 0.00 0.00 53 1016.9
20260505205938 78 177 4.0 4.0 0.00 0.00 0.00 52 1016.9
20260505205437 79 179 2.0 2.0 0.00 0.00 0.00 52 1017.0
20260505204933 78 136 3.0 4.0 0.00 0.00 0.00 52 1016.6
20260505204431 78 31 1.0 2.0 0.00 0.00 0.00 52 1016.8
20260505203929 79 274 1.0 2.0 0.00 0.00 0.00 53 1016.8
20260505203425 80 175 3.0 3.0 0.00 0.00 0.00 51 1016.9
20260505202921 79 147 2.0 3.0 0.00 0.00 0.00 52 1016.9
20260505202417 79 148 4.0 7.0 0.00 0.00 0.00 52 1016.9
20260505201914 78 232 2.0 2.0 0.00 0.00 0.00 52 1017.1
20260505201411 78 168 2.0 3.0 0.00 0.00 0.00 51 1017.3
20260505200910 79 162 5.0 7.0 0.00 0.00 0.00 51 1017.1
20260505200406 79 209 2.0 3.0 0.00 0.00 0.00 51 1017.2
20260505195901 79 194 2.0 3.0 0.00 0.00 0.00 52 1017.2
20260505195359 80 229 2.0 2.0 0.00 0.00 0.00 50 1017.4
20260505194856 80 236 1.0 1.0 0.00 0.00 0.00 50 1017.3
20260505194354 80 145 3.0 3.0 0.00 0.00 0.00 47 1017.4
20260505193854 80 247 2.0 2.0 0.00 0.00 0.00 48 1017.5
20260505193352 79 272 1.0 2.0 0.00 0.00 0.00 49 1017.7
20260505192849 80 247 2.0 6.0 0.00 0.00 0.00 48 1017.9
20260505192348 80 188 3.0 3.0 0.00 0.00 0.00 49 1017.9
20260505191845 79 149 1.0 2.0 0.00 0.00 0.00 48 1017.9
20260505191343 78 215 2.0 2.0 0.00 0.00 0.00 48 1018.1
20260505190840 80 204 2.0 2.0 0.00 0.00 0.00 48 1018.0
20260505190335 79 150 1.0 2.0 0.00 0.00 0.00 49 1018.2
20260505185831 79 158 2.0 2.0 0.00 0.00 0.00 49 1018.4
20260505185328 79 254 2.0 3.0 0.00 0.00 0.00 49 1018.3
20260505184824 79 283 2.0 2.0 0.00 0.00 0.00 50 1018.4
20260505184321 79 114 2.0 2.0 0.00 0.00 0.00 49 1018.5
20260505183818 79 204 2.0 2.0 0.00 0.00 0.00 48 1018.5
20260505183315 79 255 2.0 3.0 0.00 0.00 0.00 48 1018.5
20260505182812 80 247 3.0 3.0 0.00 0.00 0.00 48 1018.4
20260505182308 79 179 2.0 2.0 0.00 0.00 0.00 49 1018.3
20260505181805 78 140 2.0 3.0 0.00 0.00 0.00 50 1018.5
20260505181302 79 226 4.0 6.0 0.00 0.00 0.00 48 1018.6
20260505180759 79 228 3.0 4.0 0.00 0.00 0.00 49 1018.7
20260505180255 79 286 1.0 1.0 0.00 0.00 0.00 49 1018.5
20260505175752 78 142 0.0 1.0 0.00 0.00 0.00 48 1018.7
20260505175248 79 190 1.0 1.0 0.00 0.00 0.00 49 1018.9
20260505174745 79 260 1.0 1.0 0.00 0.00 0.00 49 1018.7
20260505174242 79 260 3.0 6.0 0.00 0.00 0.00 49 1018.7
20260505173738 78 162 3.0 3.0 0.00 0.00 0.00 50 1018.6
20260505173235 79 284 0.0 1.0 0.00 0.00 0.00 48 1018.9
20260505172732 78 179 3.0 3.0 0.00 0.00 0.00 49 1019.0
20260505172229 79 216 3.0 4.0 0.00 0.00 0.00 49 1018.9
20260505171729 79 262 2.0 3.0 0.00 0.00 0.00 52 1019.0
20260505171226 78 308 1.0 1.0 0.00 0.00 0.00 53 1018.9
20260505170723 79 282 1.0 1.0 0.00 0.00 0.00 53 1019.1
20260505170220 78 191 2.0 3.0 0.00 0.00 0.00 52 1019.1
20260505165715 78 270 3.0 6.0 0.00 0.00 0.00 53 1019.0
20260505165211 78 279 1.0 1.0 0.00 0.00 0.00 53 1019.1
20260505164707 77 275 0.0 1.0 0.00 0.00 0.00 54 1019.1
20260505164204 77 80 2.0 3.0 0.00 0.00 0.00 53 1019.3
20260505163702 77 248 2.0 2.0 0.00 0.00 0.00 54 1019.4
20260505163200 77 244 3.0 3.0 0.00 0.00 0.00 55 1019.5
20260505162658 77 235 2.0 3.0 0.00 0.00 0.00 53 1019.6
20260505162155 76 234 2.0 2.0 0.00 0.00 0.00 54 1019.8
20260505161651 77 191 3.0 4.0 0.00 0.00 0.00 54 1019.7
20260505161149 75 325 1.0 2.0 0.00 0.00 0.00 57 1019.8
20260505160647 76 299 2.0 3.0 0.00 0.00 0.00 55 1019.8
20260505160144 75 242 3.0 4.0 0.00 0.00 0.00 57 1019.9
20260505153123 76 168 1.0 2.0 0.00 0.00 0.00 57 1019.9
20260505152620 76 233 1.0 1.0 0.00 0.00 0.00 57 1019.9
20260505152115 75 235 2.0 2.0 0.00 0.00 0.00 59 1019.8
20260505151611 74 243 3.0 3.0 0.00 0.00 0.00 59 1019.9
20260505151109 74 305 1.0 1.0 0.00 0.00 0.00 60 1020.0
20260505150605 73 299 4.0 4.0 0.00 0.00 0.00 60 1020.0
20260505140530 72 249 2.0 2.0 0.00 0.00 0.00 66 1019.8
20260505124943 65 292 2.0 2.0 0.00 0.00 0.00 76 1020.4
20260505124440 65 128 2.0 2.0 0.00 0.00 0.00 75 1020.2
20260505123936 65 223 2.0 3.0 0.00 0.00 0.00 77 1020.1
20260505123433 64 261 2.0 3.0 0.00 0.00 0.00 78 1020.1
20260505122929 64 163 1.0 2.0 0.00 0.00 0.00 77 1020.1
20260505122427 64 93 0.0 1.0 0.00 0.00 0.00 78 1020.2
20260505121923 63 147 1.0 1.0 0.00 0.00 0.00 80 1020.3
20260505121420 63 263 1.0 1.0 0.00 0.00 0.00 79 1020.1
20260505120916 63 179 2.0 2.0 0.00 0.00 0.00 80 1020.2
20260505120412 62 254 1.0 1.0 0.00 0.00 0.00 79 1020.0
20260505115911 61 175 1.0 1.0 0.00 0.00 0.00 82 1019.9
20260505115408 61 204 1.0 1.0 0.00 0.00 0.00 82 1020.0
20260505114906 60 147 0.0 0.0 0.00 0.00 0.00 83 1020.0
20260505114402 59 163 2.0 2.0 0.00 0.00 0.00 84 1019.9
20260505113859 59 160 1.0 2.0 0.00 0.00 0.00 84 1019.8
20260505113355 58 153 1.0 1.0 0.00 0.00 0.00 85 1019.6
20260505112851 58 144 1.0 1.0 0.00 0.00 0.00 85 1019.7
20260505112349 57 154 1.0 1.0 0.00 0.00 0.00 86 1019.8
20260505111845 57 160 1.0 2.0 0.00 0.00 0.00 86 1019.7
20260505111340 57 133 0.0 1.0 0.00 0.00 0.00 87 1019.6
20260505110836 56 152 0.0 1.0 0.00 0.00 0.00 88 1019.5
20260505110334 55 160 1.0 1.0 0.00 0.00 0.00 89 1019.6
20260505101809 51 255 0.0 0.0 0.00 0.00 0.00 95 1019.0
20260505101304 51 255 0.0 0.0 0.00 0.00 0.00 95 1018.9
20260505100800 52 255 0.0 0.0 0.00 0.00 0.00 94 1018.8
20260505100257 51 255 0.0 0.0 0.00 0.00 0.00 94 1018.7
20260505095753 51 255 0.0 0.0 0.00 0.00 0.00 94 1018.8
20260505095251 51 255 0.0 0.0 0.00 0.00 0.00 94 1018.6
20260505094746 52 255 0.0 0.0 0.00 0.00 0.00 93 1018.5
20260505094243 52 255 0.0 0.0 0.00 0.00 0.00 93 1018.7
20260505093739 52 255 0.0 0.0 0.00 0.00 0.00 93 1018.6
20260505093237 53 255 0.0 0.0 0.00 0.00 0.00 92 1018.5
20260505092733 53 255 0.0 0.0 0.00 0.00 0.00 91 1018.6
20260505092232 53 255 0.0 0.0 0.00 0.00 0.00 91 1018.5
20260505091729 53 255 0.0 0.0 0.00 0.00 0.00 91 1018.5
20260505091227 53 255 0.0 0.0 0.00 0.00 0.00 91 1018.4
20260505090724 54 255 0.0 0.0 0.00 0.00 0.00 90 1018.4
20260505090222 54 255 0.0 0.0 0.00 0.00 0.00 90 1018.4
20260505085719 54 255 0.0 0.0 0.00 0.00 0.00 90 1018.4
20260505085218 54 256 0.0 0.0 0.00 0.00 0.00 90 1018.3
20260505084714 54 256 0.0 0.0 0.00 0.00 0.00 89 1018.4
20260505084214 54 266 0.0 0.0 0.00 0.00 0.00 89 1018.0
20260505083710 55 266 0.0 0.0 0.00 0.00 0.00 88 1018.1
20260505083207 55 266 0.0 0.0 0.00 0.00 0.00 87 1018.1
20260505082702 55 266 0.0 0.0 0.00 0.00 0.00 86 1018.1
20260505082200 55 266 0.0 0.0 0.00 0.00 0.00 86 1018.2
20260505081655 55 266 0.0 0.0 0.00 0.00 0.00 86 1018.0
20260505081153 55 265 0.0 0.0 0.00 0.00 0.00 86 1018.1
20260505080650 55 267 0.0 0.0 0.00 0.00 0.00 85 1018.1
20260505080146 56 267 0.0 0.0 0.00 0.00 0.00 85 1018.0
20260505075642 56 267 0.0 0.0 0.00 0.00 0.00 85 1017.9
20260505075139 56 267 0.0 0.0 0.00 0.00 0.00 84 1018.0
20260505074636 56 267 0.0 0.0 0.00 0.00 0.00 84 1018.1
20260505074133 56 267 0.0 0.0 0.00 0.00 0.00 83 1017.7
20260505073631 56 268 0.0 0.0 0.00 0.00 0.00 83 1018.1
20260505073129 57 263 0.0 0.0 0.00 0.00 0.00 83 1018.0
20260505072624 56 255 0.0 0.0 0.00 0.00 0.00 83 1018.1
20260505072121 57 255 0.0 0.0 0.00 0.00 0.00 82 1017.9
20260505071616 57 256 0.0 0.0 0.00 0.00 0.00 82 1017.9
20260505071115 57 256 0.0 0.0 0.00 0.00 0.00 81 1017.9
20260505070612 57 260 0.0 0.0 0.00 0.00 0.00 81 1017.9
20260505070108 57 261 0.0 0.0 0.00 0.00 0.00 81 1017.8
20260505065604 57 291 0.0 0.0 0.00 0.00 0.00 80 1017.7
20260505065100 57 276 0.0 0.0 0.00 0.00 0.00 80 1017.7
20260505064557 57 250 0.0 1.0 0.00 0.00 0.00 80 1017.7
20260505064056 57 118 0.0 0.0 0.00 0.00 0.00 80 1017.9
20260505063553 58 243 0.0 0.0 0.00 0.00 0.00 79 1017.7
20260505063048 58 239 0.0 0.0 0.00 0.00 0.00 79 1018.0
20260505062545 58 241 0.0 0.0 0.00 0.00 0.00 78 1018.1
20260505062042 58 249 0.0 0.0 0.00 0.00 0.00 78 1017.9
20260505061540 59 249 1.0 1.0 0.00 0.00 0.00 77 1017.9
20260505061038 59 249 1.0 1.0 0.00 0.00 0.00 77 1017.9
20260505060535 59 232 0.0 0.0 0.00 0.00 0.00 77 1018.1
20260505060031 59 273 0.0 0.0 0.00 0.00 0.00 77 1018.0
20260505055527 59 269 0.0 0.0 0.00 0.00 0.00 77 1018.1
20260505055024 59 295 0.0 0.0 0.00 0.00 0.00 76 1018.0
20260505054521 59 284 0.0 1.0 0.00 0.00 0.00 76 1018.3
20260505054019 59 185 0.0 0.0 0.00 0.00 0.00 76 1018.2
20260505053516 59 197 0.0 0.0 0.00 0.00 0.00 76 1018.0
20260505053013 59 288 0.0 0.0 0.00 0.00 0.00 76 1018.4
20260505052510 59 214 1.0 1.0 0.00 0.00 0.00 76 1018.3
20260505052007 60 255 0.0 0.0 0.00 0.00 0.00 75 1018.3
20260505051504 60 255 0.0 0.0 0.00 0.00 0.00 75 1018.4
20260505051002 60 259 0.0 0.0 0.00 0.00 0.00 74 1018.5
20260505050500 60 298 0.0 0.0 0.00 0.00 0.00 74 1018.4